| time (UTC) | temp F | wind direction | speed knots | gust knots | rain 1hr in | rain 24hr in | rain mn in | humidity % | barometer mb |
| 20260510224505 | 62 | 210 | 8.7 | 11.3 | 0.00 | 0.10 | 0.06 | 51 | 1015.3 |
| 20260510223002 | 62 | 193 | 8.7 | 13.0 | 0.00 | 0.10 | 0.06 | 53 | 1015.4 |
| 20260510221501 | 61 | 151 | 5.2 | 10.4 | 0.00 | 0.10 | 0.06 | 52 | 1015.5 |
| 20260510220002 | 61 | 178 | 6.1 | 13.0 | 0.00 | 0.10 | 0.06 | 55 | 1015.5 |
| 20260510214601 | 61 | 201 | 7.0 | 11.3 | 0.00 | 0.10 | 0.06 | 51 | 1015.5 |
| 20260510213118 | 59 | 185 | 7.8 | 13.9 | 0.00 | 0.10 | 0.06 | 58 | 1015.7 |
| 20260510211602 | 61 | 175 | 7.0 | 10.4 | 0.00 | 0.10 | 0.06 | 52 | 1015.8 |
| 20260510210056 | 60 | 271 | 3.5 | 10.4 | 0.00 | 0.10 | 0.06 | 51 | 1015.9 |
| 20260510204613 | 60 | 170 | 5.2 | 8.7 | 0.00 | 0.10 | 0.06 | 53 | 1016.2 |
| 20260510203055 | 59 | 180 | 5.2 | 10.4 | 0.00 | 0.10 | 0.06 | 53 | 1016.2 |
| 20260510201559 | 60 | 184 | 6.1 | 10.4 | 0.00 | 0.10 | 0.06 | 56 | 1016.2 |
| 20260510200052 | 59 | 161 | 6.1 | 9.6 | 0.00 | 0.10 | 0.06 | 57 | 1016.4 |
| 20260510194553 | 58 | 140 | 7.8 | 11.3 | 0.00 | 0.10 | 0.06 | 61 | 1016.5 |
| 20260510193045 | 57 | 172 | 6.1 | 10.4 | 0.00 | 0.10 | 0.06 | 62 | 1016.4 |
| 20260510191545 | 57 | 185 | 3.5 | 8.7 | 0.00 | 0.10 | 0.06 | 59 | 1016.4 |
| 20260510190057 | 57 | 180 | 3.5 | 11.3 | 0.00 | 0.10 | 0.06 | 61 | 1016.5 |
| 20260510184543 | 56 | 117 | 2.6 | 7.8 | 0.00 | 0.10 | 0.06 | 62 | 1016.6 |
| 20260510183040 | 56 | 166 | 6.1 | 8.7 | 0.00 | 0.10 | 0.06 | 63 | 1016.6 |
| 20260510181549 | 55 | 187 | 1.7 | 7.0 | 0.00 | 0.10 | 0.06 | 64 | 1016.7 |
| 20260510180037 | 55 | 206 | 2.6 | 5.2 | 0.00 | 0.10 | 0.06 | 65 | 1016.8 |
| 20260510174543 | 54 | 148 | 5.2 | 8.7 | 0.00 | 0.10 | 0.06 | 67 | 1016.8 |
| 20260510173033 | 54 | 170 | 2.6 | 7.0 | 0.00 | 0.10 | 0.06 | 67 | 1016.8 |
| 20260510171543 | 53 | 176 | 4.3 | 7.0 | 0.00 | 0.10 | 0.06 | 70 | 1016.7 |
| 20260510170029 | 52 | 114 | 3.5 | 8.7 | 0.00 | 0.10 | 0.06 | 71 | 1016.7 |
| 20260510164524 | 52 | 123 | 4.3 | 7.0 | 0.00 | 0.10 | 0.06 | 78 | 1016.7 |
| 20260510163022 | 51 | 121 | 2.6 | 6.1 | 0.00 | 0.10 | 0.06 | 76 | 1016.7 |
| 20260510161520 | 50 | 148 | 1.7 | 7.0 | 0.00 | 0.10 | 0.06 | 78 | 1016.6 |
| 20260510160029 | 49 | 98 | 0.0 | 5.2 | 0.00 | 0.10 | 0.06 | 78 | 1016.6 |
| 20260510154517 | 50 | 34 | 2.6 | 7.8 | 0.00 | 0.10 | 0.06 | 81 | 1016.7 |
| 20260510153022 | 49 | 56 | 4.3 | 7.8 | 0.00 | 0.10 | 0.06 | 82 | 1016.6 |
| 20260510151518 | 47 | 50 | 3.5 | 9.6 | 0.00 | 0.10 | 0.06 | 87 | 1016.5 |
| 20260510150011 | 47 | 74 | 7.0 | 9.6 | 0.00 | 0.10 | 0.06 | 88 | 1016.3 |
| 20260510144511 | 46 | 63 | 6.1 | 8.7 | 0.00 | 0.10 | 0.06 | 89 | 1016.3 |
| 20260510143004 | 46 | 36 | 5.2 | 8.7 | 0.00 | 0.10 | 0.06 | 90 | 1016.3 |
| 20260510141506 | 45 | 25 | 7.8 | 9.6 | 0.00 | 0.10 | 0.06 | 90 | 1016.2 |
| 20260510140002 | 45 | 35 | 6.1 | 11.3 | 0.00 | 0.10 | 0.06 | 91 | 1016.3 |
| 20260510134600 | 45 | 15 | 9.6 | 13.9 | 0.00 | 0.10 | 0.06 | 91 | 1016.0 |
| 20260510134502 | 45 | 40 | 9.6 | 13.9 | 0.00 | 0.10 | 0.06 | 91 | 1016.0 |
| 20260510133102 | 45 | 17 | 7.8 | 10.4 | 0.00 | 0.10 | 0.06 | 92 | 1015.9 |
| 20260510131600 | 45 | 16 | 7.8 | 9.6 | 0.00 | 0.10 | 0.06 | 92 | 1015.9 |
| 20260510130058 | 44 | 20 | 6.1 | 9.6 | 0.00 | 0.10 | 0.06 | 92 | 1015.7 |
| 20260510124600 | 44 | 355 | 5.2 | 7.8 | 0.00 | 0.10 | 0.06 | 93 | 1015.6 |
| 20260510123054 | 44 | 355 | 5.2 | 8.7 | 0.00 | 0.10 | 0.06 | 93 | 1015.4 |
| 20260510121552 | 44 | 343 | 4.3 | 8.7 | 0.00 | 0.10 | 0.06 | 93 | 1015.2 |
| 20260510120051 | 44 | 341 | 6.1 | 8.7 | 0.00 | 0.10 | 0.06 | 93 | 1015.0 |
| 20260510114600 | 44 | 320 | 5.2 | 10.4 | 0.01 | 0.10 | 0.06 | 93 | 1014.9 |
| 20260510113057 | 44 | 321 | 6.1 | 9.6 | 0.01 | 0.10 | 0.06 | 93 | 1015.0 |
| 20260510111547 | 44 | 360 | 6.1 | 9.6 | 0.01 | 0.10 | 0.06 | 93 | 1014.6 |
| 20260510110052 | 44 | 345 | 6.1 | 8.7 | 0.01 | 0.10 | 0.06 | 93 | 1014.4 |
| 20260510104547 | 44 | 360 | 4.3 | 7.8 | 0.00 | 0.09 | 0.05 | 93 | 1014.4 |
| 20260510103049 | 44 | 26 | 6.1 | 10.4 | 0.00 | 0.09 | 0.05 | 93 | 1014.2 |
| 20260510101556 | 44 | 13 | 7.8 | 9.6 | 0.00 | 0.09 | 0.05 | 93 | 1014.0 |
| 20260510100049 | 44 | 13 | 7.8 | 10.4 | 0.00 | 0.09 | 0.05 | 93 | 1014.2 |
| 20260510094548 | 44 | 17 | 7.8 | 12.2 | 0.00 | 0.09 | 0.05 | 93 | 1013.9 |
| 20260510093040 | 45 | 23 | 7.8 | 13.0 | 0.00 | 0.09 | 0.05 | 93 | 1014.0 |
| 20260510091538 | 45 | 36 | 7.8 | 13.9 | 0.00 | 0.09 | 0.05 | 93 | 1013.7 |
| 20260510090038 | 45 | 26 | 9.6 | 12.2 | 0.01 | 0.09 | 0.05 | 93 | 1013.7 |
| 20260510084538 | 45 | 31 | 8.7 | 11.3 | 0.05 | 0.09 | 0.05 | 93 | 1013.5 |
| 20260510083035 | 45 | 42 | 10.4 | 13.0 | 0.05 | 0.09 | 0.05 | 93 | 1013.2 |
| 20260510081541 | 45 | 32 | 7.8 | 9.6 | 0.05 | 0.09 | 0.05 | 92 | 1013.5 |
| 20260510080050 | 45 | 54 | 10.4 | 14.8 | 0.03 | 0.07 | 0.03 | 91 | 1013.0 |
| 20260510074531 | 45 | 325 | 7.8 | 10.4 | 0.00 | 0.04 | 0.00 | 92 | 1013.8 |
| 20260510073039 | 45 | 9 | 8.7 | 12.2 | 0.00 | 0.04 | 0.00 | 92 | 1012.8 |
| 20260510071525 | 45 | 14 | 10.4 | 13.0 | 0.00 | 0.04 | 0.00 | 92 | 1012.6 |
| 20260510070028 | 45 | 10 | 8.7 | 15.6 | 0.00 | 0.04 | 0.00 | 92 | 1012.3 |
| 20260510063040 | 44 | 5 | 7.8 | 10.4 | 0.00 | 0.04 | 0.00 | 90 | 1011.7 |
| 20260510061535 | 44 | 333 | 4.3 | 7.0 | 0.00 | 0.04 | 0.00 | 87 | 1011.2 |